This is the latest recevied weather packets stored in our database for station/object NZ3C. If no packets are shown the sender has not sent any weather packets the latest 10 day(s).
| Time | Temp. | Humidity | Pressure | Rain* | Wind** | Luminosity | Snow |
|---|---|---|---|---|---|---|---|
| 1777933635 | 25.56° C | 31% | 1015.2 hPa | 0 mm | - | 92 W/m² | - |
| 1777933332 | 25.56° C | 32% | 1015.2 hPa | 0 mm | - | 142 W/m² | - |
| 1777933029 | 25.56° C | 32% | 1015.2 hPa | 0 mm | - | 59 W/m² | - |
| 1777932726 | 25.56° C | 32% | 1015.2 hPa | 0 mm | - | 61 W/m² | - |
| 1777932423 | 25.56° C | 31% | 1015.3 hPa | 0 mm | - | 130 W/m² | - |
| 1777932120 | 26.11° C | 31% | 1015.2 hPa | 0 mm | - | 92 W/m² | - |
| 1777931816 | 25.56° C | 31% | 1015.2 hPa | 0 mm | - | 206 W/m² | - |
| 1777931514 | 25.56° C | 31% | 1015.2 hPa | 0 mm | - | 182 W/m² | - |
| 1777931209 | 25.56° C | 32% | 1015.4 hPa | 0 mm | - | 73 W/m² | - |
| 1777930906 | 25.56° C | 32% | 1015.4 hPa | 0 mm | - | 73 W/m² | - |
| 1777930603 | 25.56° C | 32% | 1015.1 hPa | 0 mm | - | 74 W/m² | - |
| 1777930299 | 25.56° C | 32% | 1015.3 hPa | 0 mm | - | 134 W/m² | - |
| 1777929996 | 25.56° C | 31% | 1015.2 hPa | 0 mm | - | 111 W/m² | - |
| 1777929693 | 26.11° C | 29% | 1015.2 hPa | 0 mm | - | 76 W/m² | - |
| 1777929390 | 26.11° C | 32% | 1015.3 hPa | 0 mm | - | 168 W/m² | - |
| 1777929086 | 26.67° C | 29% | 1015.4 hPa | 0 mm | - | 203 W/m² | - |
| 1777928785 | 26.67° C | 30% | 1015.3 hPa | 0 mm | - | 401 W/m² | - |
| 1777928480 | 26.67° C | 30% | 1015.1 hPa | 0 mm | - | 419 W/m² | - |
| 1777928178 | 26.67° C | 29% | 1015.3 hPa | 0 mm | - | 439 W/m² | - |
| 1777927876 | 27.22° C | 29% | 1015.3 hPa | 0 mm | - | 462 W/m² | - |
| 1777927574 | 26.67° C | 30% | 1015.2 hPa | 0 mm | - | 485 W/m² | - |
| 1777927272 | 26.67° C | 29% | 1015.5 hPa | 0 mm | - | 493 W/m² | - |
| 1777926971 | 26.67° C | 29% | 1015.7 hPa | 0 mm | - | 469 W/m² | - |
| 1777926668 | 26.67° C | 29% | 1015.7 hPa | 0 mm | - | 509 W/m² | - |
| 1777926363 | 26.67° C | 29% | 1015.5 hPa | 0 mm | - | 520 W/m² | - |
* Rain latest hour (hover to see other rain measurements)
** Current wind speed in m/s (hover to see current wind gust speed)